FW8128 Weather Reports


time (UTC)temp
C
wind
direction
speed
KPH
gust
KPH
rain 1hr
cm
rain 24hr
cm
rain mn
cm
humidity
%
barometer
mb
20260503060140 4 0 0.0 0.0 0.00 0.00 0.00 93 1016.3
20260503054141 4 0 0.0 0.0 0.00 0.00 0.00 93 1016.3
20260503053642 4 0 0.0 0.0 0.00 0.00 0.00 93 1016.3
20260503053125 4 0 0.0 0.0 0.00 0.00 0.00 93 1016.3
20260503052627 4 0 0.0 0.0 0.00 0.00 0.00 93 1016.3
20260503052126 4 0 0.0 0.0 0.00 0.00 0.00 93 1016.2
20260503051626 4 0 0.0 1.6 0.00 0.00 0.00 93 1016.2
20260503051356 4 0 0.0 1.6 0.00 0.00 0.00 93 1016.1
20260503050858 4 252 0.0 1.6 0.00 0.00 0.00 93 1016.1
20260503050357 4 0 0.0 0.0 0.00 0.00 0.00 93 1016.1
20260503045628 4 0 0.0 0.0 0.00 0.00 0.00 93 1016.1
20260503045126 4 0 0.0 0.0 0.00 0.00 0.00 93 1016.0
20260503044627 4 0 0.0 0.0 0.00 0.00 0.00 93 1016.0
20260503044126 5 0 0.0 0.0 0.00 0.00 0.00 93 1016.0
20260503043627 5 0 0.0 0.0 0.00 0.00 0.00 93 1016.0
20260503043126 5 0 0.0 0.0 0.00 0.00 0.00 93 1015.9
20260503042844 5 0 0.0 0.0 0.00 0.00 0.00 93 1015.9
20260503042112 5 0 0.0 1.6 0.00 0.00 0.00 92 1015.9
20260503041613 5 255 1.6 1.6 0.00 0.00 0.00 92 1015.8
20260503041112 5 244 1.6 3.2 0.00 0.00 0.00 92 1015.8
20260503040613 5 242 1.6 3.2 0.00 0.00 0.00 91 1015.8
20260503040112 5 249 1.6 1.6 0.00 0.00 0.00 91 1015.7
20260503035843 5 245 1.6 3.2 0.00 0.00 0.00 91 1015.7
20260503035110 5 257 3.2 3.2 0.00 0.00 0.00 91 1015.6
20260503034602 5 254 3.2 3.2 0.00 0.00 0.00 91 1015.6
20260503034057 5 256 1.6 3.2 0.00 0.00 0.00 90 1015.5
20260503033558 6 252 1.6 3.2 0.00 0.00 0.00 90 1015.5
20260503033329 6 260 1.6 3.2 0.00 0.00 0.00 90 1015.5
20260503032558 6 257 3.2 3.2 0.00 0.00 0.00 89 1015.5
20260503032058 6 261 3.2 6.4 0.00 0.00 0.00 89 1015.4
20260503031559 6 265 3.2 6.4 0.00 0.00 0.00 89 1015.4
20260503031058 6 274 4.8 11.3 0.00 0.00 0.00 88 1015.3
20260503030555 6 266 6.4 12.9 0.00 0.00 0.00 88 1015.3
20260503030056 6 167 4.8 12.9 0.00 0.00 0.00 90 1015.4
20260503025826 6 273 1.6 9.7 0.00 0.00 0.00 89 1015.3
20260503025327 6 269 3.2 9.7 0.00 0.00 0.00 89 1015.3
20260503024553 6 226 4.8 9.7 0.00 0.00 0.00 89 1015.3
20260503024053 6 266 4.8 9.7 0.00 0.00 0.00 89 1015.3
20260503023553 6 316 3.2 9.7 0.00 0.00 0.00 89 1015.1
20260503023052 6 249 3.2 8.0 0.00 0.00 0.00 88 1015.1
20260503022553 6 261 3.2 9.7 0.00 0.00 0.00 88 1015.1
20260503022052 6 208 3.2 9.7 0.00 0.00 0.00 89 1015.0
20260503021553 6 295 3.2 9.7 0.00 0.00 0.00 89 1015.1
20260503021052 6 336 3.2 8.0 0.00 0.00 0.00 88 1015.0
20260503020553 6 263 3.2 6.4 0.00 0.00 0.00 88 1014.8
20260503020051 6 260 3.2 6.4 0.00 0.00 0.00 88 1014.8
20260503015821 7 359 4.8 8.0 0.00 0.00 0.00 87 1014.6
20260503015050 7 264 4.8 8.0 0.00 0.00 0.00 87 1014.6
20260503014822 7 270 3.2 6.4 0.00 0.00 0.00 87 1014.5
20260503014051 7 288 3.2 6.4 0.00 0.00 0.00 86 1014.4
20260503013547 7 267 4.8 9.7 0.00 0.00 0.00 86 1014.3
20260503013047 7 286 4.8 9.7 0.00 0.00 0.00 85 1014.3
20260503012819 7 312 3.2 6.4 0.00 0.00 0.00 84 1014.1
20260503012320 8 318 3.2 6.4 0.00 0.00 0.00 83 1014.0
20260503011548 8 310 3.2 6.4 0.00 0.00 0.00 83 1013.9
20260503011048 8 323 3.2 6.4 0.00 0.00 0.00 82 1013.9
20260503010820 8 315 3.2 4.8 0.00 0.00 0.00 80 1013.8
20260503010050 8 310 3.2 4.8 0.00 0.00 0.00 79 1013.6
20260503005549 9 314 3.2 3.2 0.00 0.00 0.00 78 1013.6
20260503005049 9 257 1.6 3.2 0.00 0.00 0.00 77 1013.5
20260503004820 9 273 0.0 3.2 0.00 0.00 0.00 76 1013.2
20260503004048 10 0 0.0 0.0 0.00 0.00 0.00 75 1013.1
20260503003548 10 0 0.0 0.0 0.00 0.00 0.00 75 1013.2
20260503003048 10 0 0.0 0.0 0.00 0.00 0.00 75 1013.1
20260503002549 10 0 0.0 0.0 0.00 0.00 0.00 74 1013.1
20260503002054 10 0 0.0 3.2 0.00 0.00 0.00 72 1012.8
20260503002048 10 0 0.0 1.6 0.00 0.00 0.00 73 1012.8
20260503001046 10 269 0.0 3.2 0.00 0.00 0.00 73 1012.8
20260503000546 11 288 0.0 3.2 0.00 0.00 0.00 72 1012.6
20260503000046 11 0 0.0 0.0 0.00 0.00 0.00 71 1012.6
20260502235546 11 0 0.0 0.0 0.00 0.00 0.00 70 1012.5
20260502235046 11 0 0.0 0.0 0.00 0.00 0.00 68 1012.5
20260502234546 12 0 0.0 1.6 0.00 0.00 0.00 67 1012.5
20260502234046 12 0 0.0 1.6 0.00 0.00 0.00 66 1012.4
20260502233546 12 0 0.0 1.6 0.00 0.00 0.00 65 1012.4
20260502233046 12 0 0.0 1.6 0.00 0.00 0.00 63 1012.3
20260502232546 13 0 0.0 1.6 0.00 0.00 0.00 61 1012.2
20260502232316 13 0 0.0 1.6 0.00 0.00 0.00 61 1012.2
20260502231546 13 0 0.0 1.6 0.00 0.00 0.00 60 1012.1
20260502231046 13 0 0.0 1.6 0.00 0.00 0.00 59 1012.0
20260502230543 13 0 0.0 3.2 0.00 0.00 0.00 57 1011.9
20260502230044 14 0 0.0 3.2 0.00 0.00 0.00 56 1011.8
20260502225544 14 0 0.0 3.2 0.00 0.00 0.00 55 1011.8
20260502225043 14 0 0.0 8.0 0.00 0.00 0.00 54 1011.6
20260502224544 15 0 0.0 8.0 0.00 0.00 0.00 53 1011.6
20260502224315 15 0 0.0 4.8 0.00 0.00 0.00 52 1011.6
20260502223544 15 0 0.0 4.8 0.00 0.00 0.00 53 1011.6
20260502223041 15 241 0.0 8.0 0.00 0.00 0.00 52 1011.6
20260502222542 15 0 0.0 8.0 0.00 0.00 0.00 52 1011.5
20260502222041 15 0 0.0 3.2 0.00 0.00 0.00 50 1011.5
20260502221542 15 0 0.0 3.2 0.00 0.00 0.00 49 1011.5
20260502221312 15 0 0.0 6.4 0.00 0.00 0.00 48 1011.5
20260502220542 15 0 0.0 6.4 0.00 0.00 0.00 49 1011.4
20260502220309 15 0 0.0 3.2 0.00 0.00 0.00 49 1011.4
20260502215538 15 0 0.0 3.2 0.00 0.00 0.00 51 1011.3
20260502215310 15 0 0.0 4.8 0.00 0.00 0.00 49 1011.2
20260502214539 16 0 0.0 4.8 0.00 0.00 0.00 48 1011.1
20260502214310 16 274 0.0 6.4 0.00 0.00 0.00 45 1011.2
20260502213539 16 0 1.6 6.4 0.00 0.00 0.00 43 1011.2
20260502213038 16 0 0.0 6.4 0.00 0.00 0.00 43 1011.2
20260502212537 16 0 0.0 3.2 0.00 0.00 0.00 46 1011.2
20260502212036 16 0 0.0 3.2 0.00 0.00 0.00 48 1011.2
20260502211537 16 0 1.6 11.3 0.00 0.00 0.00 48 1011.2
20260502211036 16 0 3.2 11.3 0.00 0.00 0.00 46 1011.1
20260502210534 16 31 3.2 11.3 0.00 0.00 0.00 44 1011.1
20260502210035 16 0 1.6 6.4 0.00 0.00 0.00 46 1011.1
20260502205533 16 0 1.6 6.4 0.00 0.00 0.00 48 1011.1
20260502205034 15 226 1.6 6.4 0.00 0.00 0.00 49 1011.2
20260502204805 15 0 1.6 8.0 0.00 0.00 0.00 46 1011.2
20260502204033 15 160 3.2 11.3 0.00 0.00 0.00 46 1011.2
20260502203535 15 253 3.2 11.3 0.00 0.00 0.00 45 1011.2
20260502203033 15 216 0.0 9.7 0.00 0.00 0.00 47 1011.3
20260502202534 15 0 1.6 8.0 0.00 0.00 0.00 46 1011.3
20260502202034 15 0 3.2 11.3 0.00 0.00 0.00 46 1011.3
20260502201534 15 353 4.8 11.3 0.00 0.00 0.00 44 1011.3
20260502201302 15 336 3.2 11.3 0.00 0.00 0.00 44 1011.4
20260502200532 15 313 3.2 12.9 0.00 0.00 0.00 46 1011.5
20260502200034 15 0 3.2 12.9 0.00 0.00 0.00 44 1011.6
20260502200029 15 10 3.2 12.9 0.00 0.00 0.00 44 1011.6
20260502195025 15 253 4.8 14.5 0.00 0.00 0.00 47 1011.8
20260502194522 15 0 4.8 14.5 0.00 0.00 0.00 49 1011.9
20260502194020 15 23 3.2 9.7 0.00 0.00 0.00 47 1011.9
20260502193521 15 186 1.6 6.4 0.00 0.00 0.00 46 1012.1
20260502193019 14 0 1.6 8.0 0.00 0.00 0.00 52 1012.2
20260502192521 13 0 3.2 8.0 0.00 0.00 0.00 48 1012.3
20260502192020 13 0 3.2 9.7 0.00 0.00 0.00 50 1012.4
20260502191754 13 19 4.8 14.5 0.00 0.00 0.00 51 1012.4
20260502191252 13 19 4.8 14.5 0.00 0.00 0.00 51 1012.4
20260502190521 12 342 3.2 12.9 0.00 0.00 0.00 52 1012.5
20260502190020 12 329 3.2 12.9 0.00 0.00 0.00 52 1012.6
20260502185523 12 5 6.4 12.9 0.00 0.00 0.00 50 1012.5
20260502185018 12 24 4.8 12.9 0.00 0.00 0.00 51 1012.5
20260502184519 12 351 4.8 11.3 0.00 0.00 0.00 51 1012.4
20260502184019 12 18 4.8 14.5 0.00 0.00 0.00 50 1012.4
20260502183520 12 11 4.8 14.5 0.00 0.00 0.00 50 1012.5
20260502183019 12 320 3.2 14.5 0.00 0.00 0.00 51 1012.5
20260502182521 13 14 3.2 14.5 0.00 0.00 0.00 50 1012.5
20260502182026 12 343 4.8 17.7 0.00 0.00 0.00 53 1012.6
20260502182020 13 179 3.2 8.0 0.00 0.00 0.00 52 1012.5
20260502181518 12 213 6.4 17.7 0.00 0.00 0.00 51 1012.5
20260502180518 13 324 6.4 14.5 0.00 0.00 0.00 52 1012.7
20260502170504 12 161 6.4 14.5 0.00 0.00 0.00 56 1013.2
20260502164016 12 351 6.4 14.5 0.00 0.00 0.00 60 1013.8
20260502164004 12 336 4.8 16.1 0.00 0.00 0.00 60 1013.6
20260502163504 12 349 4.8 16.1 0.00 0.00 0.00 61 1013.7
20260502162504 12 348 4.8 17.7 0.00 0.00 0.00 59 1013.8
20260502162001 12 347 6.4 17.7 0.00 0.00 0.00 62 1013.8
20260502161501 12 351 8.0 17.7 0.00 0.00 0.00 61 1013.8
20260502160958 12 334 6.4 14.5 0.00 0.00 0.00 62 1013.9
20260502160729 12 227 6.4 14.5 0.00 0.00 0.00 64 1014.1
20260502152225 11 329 6.4 12.9 0.00 0.00 0.00 65 1014.8
20260502151447 11 245 4.8 14.5 0.00 0.00 0.00 64 1014.3
20260502150941 11 6 6.4 17.7 0.00 0.00 0.00 66 1014.3
20260502150438 11 357 4.8 17.7 0.00 0.00 0.00 66 1014.4
20260502130313 11 326 4.8 12.9 0.00 0.00 0.00 78 1013.3
20260502123313 12 4 6.4 11.3 0.00 0.00 0.00 77 1013.1
20260502122813 12 354 4.8 14.5 0.00 0.00 0.00 79 1012.8
20260502122313 12 2 3.2 14.5 0.00 0.00 0.00 80 1012.6
20260502121813 12 288 4.8 16.1 0.00 0.00 0.00 79 1013.1
20260502121313 11 232 6.4 16.1 0.00 0.00 0.00 80 1013.2
20260502120813 11 14 8.0 17.7 0.00 0.00 0.00 81 1013.3
20260502120308 11 298 6.4 17.7 0.00 0.00 0.00 81 1013.3
20260502115807 11 325 4.8 11.3 0.00 0.00 0.00 83 1013.2
20260502115308 11 332 4.8 11.3 0.00 0.00 0.00 85 1013.2
20260502114808 11 3 6.4 11.3 0.00 0.00 0.00 87 1013.3
20260502114301 11 356 6.4 11.3 0.00 0.00 0.00 88 1013.2
20260502113802 11 358 6.4 12.9 0.00 0.00 0.00 89 1013.3
20260502113302 11 322 6.4 12.9 0.00 0.00 0.00 89 1012.9
20260502112802 11 5 6.4 12.9 0.00 0.00 0.00 90 1012.7
20260502112305 11 340 6.4 12.9 0.00 0.00 0.00 91 1012.7
20260502111804 11 337 4.8 12.9 0.00 0.00 0.00 92 1012.7
20260502111303 11 4 4.8 12.9 0.00 0.00 0.00 93 1012.6
20260502110803 11 356 4.8 12.9 0.00 0.00 0.00 94 1012.6
20260502110531 11 6 3.2 9.7 0.00 0.00 0.00 94 1012.6
20260502110027 11 338 4.8 9.7 0.00 0.00 0.00 94 1012.6
20260502105257 11 350 6.4 9.7 0.00 0.00 0.00 95 1012.6
20260502104756 11 346 4.8 9.7 0.00 0.00 0.00 95 1012.4
20260502104528 11 336 3.2 8.0 0.00 0.00 0.00 95 1012.4
20260502103744 11 327 3.2 8.0 0.00 0.00 0.00 95 1012.3
20260502103241 11 341 3.2 14.5 0.00 0.00 0.00 95 1012.4
20260502102740 11 0 4.8 14.5 0.00 0.00 0.00 95 1012.5
20260502102234 11 4 6.4 14.5 0.00 0.00 0.00 95 1012.5
20260502101734 11 353 4.8 9.7 0.00 0.00 0.00 95 1012.5
20260502101229 11 317 3.2 6.4 0.00 0.00 0.00 95 1012.5
20260502100728 11 320 1.6 6.4 0.00 0.00 0.00 95 1012.5
20260502100228 11 0 0.0 4.8 0.00 0.00 0.00 95 1012.7
20260502091447 11 0 0.0 0.0 0.00 0.00 0.00 94 1013.3
20260502090214 11 0 0.0 0.0 0.00 0.00 0.00 94 1013.4
20260502071151 11 346 6.4 11.3 0.00 0.00 0.00 94 1012.2
20260502070649 11 319 3.2 11.3 0.00 0.00 0.00 94 1012.1
20260502070148 11 0 1.6 8.0 0.00 0.00 0.00 94 1011.9
20260502065648 11 0 3.2 8.0 0.00 0.00 0.00 94 1011.9
20260502065145 11 346 1.6 6.4 0.00 0.00 0.00 94 1011.8
20260502064645 11 0 0.0 0.0 0.00 0.00 0.00 94 1011.7
20260502064146 11 0 0.0 0.0 0.00 0.00 0.00 94 1011.7
20260502063643 11 0 0.0 0.0 0.00 0.00 0.00 94 1011.8